This is the latest recevied weather packets stored in our database for station/object VE7THZ. If no packets are shown the sender has not sent any weather packets the latest 10 day(s).
| Time | Temp. | Humidity | Pressure | Rain* | Wind** | Luminosity | Snow |
|---|---|---|---|---|---|---|---|
| 1776994141 | 10.56° C | 21% | 1018.3 hPa | 0 mm | - | - | - |
| 1776993535 | 10.56° C | 20% | 1018.3 hPa | 0 mm | - | - | - |
| 1776992950 | 11.11° C | 18% | 1018.1 hPa | 0 mm | - | - | - |
| 1776992318 | 11.11° C | 18% | 1018.1 hPa | 0 mm | - | - | - |
| 1776991710 | 11.11° C | 19% | 1017.9 hPa | 0 mm | - | - | - |
| 1776991094 | 11.67° C | 19% | 1017.9 hPa | 0 mm | - | - | - |
| 1776990478 | 13.33° C | 18% | 1017.7 hPa | 0 mm | - | - | - |
| 1776989897 | 13.33° C | 18% | 1017.6 hPa | 0 mm | - | - | - |
| 1776989270 | 12.22° C | 22% | 1017.6 hPa | 0 mm | - | - | - |
| 1776988649 | 11.11° C | 22% | 1017.6 hPa | 0 mm | - | - | - |
| 1776988022 | 11.67° C | 21% | 1017.4 hPa | 0 mm | - | - | - |
| 1776987398 | 11.67° C | 22% | 1017.5 hPa | 0 mm | - | - | - |
| 1776986771 | 12.78° C | 21% | 1017.2 hPa | 0 mm | - | - | - |
| 1776986161 | 12.78° C | 23% | 1017.2 hPa | 0 mm | - | - | - |
| 1776985552 | 12.22° C | 23% | 1017.1 hPa | 0 mm | - | - | - |
| 1776984942 | 12.78° C | 22% | 1017.2 hPa | 0 mm | - | - | - |
| 1776984339 | 13.33° C | 21% | 1016.9 hPa | 0 mm | - | - | - |
| 1776983730 | 13.33° C | 17% | 1017.1 hPa | 0 mm | - | - | - |
| 1776983138 | 13.33° C | 20% | 1017.2 hPa | 0 mm | - | - | - |
| 1776982519 | 13.89° C | 21% | 1016.9 hPa | 0 mm | - | - | - |
| 1776981930 | 13.33° C | 21% | 1017.1 hPa | 0 mm | - | - | - |
| 1776981303 | 13.33° C | 18% | 1017.1 hPa | 0 mm | - | - | - |
| 1776980721 | 14.44° C | 18% | 1016.9 hPa | 0 mm | - | - | - |
| 1776980097 | 14.44° C | 15% | 1016.7 hPa | 0 mm | - | - | - |
| 1776979514 | 15° C | 18% | 1016.8 hPa | 0 mm | - | - | - |
* Rain latest hour (hover to see other rain measurements)
** Current wind speed in m/s (hover to see current wind gust speed)